• In Uzbekistan
  • List of Countries
  • For 7 days
  • Water Temperature
  • Satellite Maps
  • Weather Map
  • Weather Widgets
  • user-avatar
    Login

    Hourly Weather Bari

    Today, 12 December, Tuesday

    Time Temperature Precipitation Wind Pressure Humidity
    00:00 +19°C° 0.2 mm 2 mps 741 mmHg 56%
    01:00 +19°C° 0.2 mm 2 mps 741 mmHg 60%
    02:00 +19°C° 0.2 mm 2 mps 741 mmHg 63%
    03:00 +19°C° 0 mm 2 mps 741 mmHg 67%
    04:00 +19°C° 0 mm 2 mps 741 mmHg 71%
    05:00 +18°C° 0 mm 2 mps 741 mmHg 80%
    06:00 +18°C° 0 mm 2 mps 742 mmHg 78%
    07:00 +19°C° 0 mm 2 mps 742 mmHg 76%
    08:00 +19°C° 0 mm 2 mps 743 mmHg 75%
    09:00 +21°C° 0 mm 2 mps 743 mmHg 65%
    10:00 +24°C° 0 mm 2 mps 743 mmHg 56%
    11:00 +25°C° 0 mm 2 mps 744 mmHg 47%
    12:00 +26°C° 0 mm 2 mps 743 mmHg 41%
    13:00 +26°C° 0 mm 2 mps 743 mmHg 36%
    14:00 +27°C° 0 mm 2 mps 742 mmHg 31%
    15:00 +26°C° 0 mm 2 mps 742 mmHg 33%
    16:00 +24°C° 0 mm 2 mps 742 mmHg 35%
    17:00 +23°C° 0 mm 2 mps 742 mmHg 38%
    18:00 +21°C° 0 mm 2 mps 743 mmHg 38%
    19:00 +20°C° 0 mm 2 mps 743 mmHg 39%
    20:00 +19°C° 0 mm 2 mps 743 mmHg 40%
    21:00 +19°C° 0 mm 2 mps 744 mmHg 40%
    22:00 +18°C° 0 mm 2 mps 744 mmHg 41%
    23:00 +18°C° 0 mm 2 mps 744 mmHg 41%

    Tomorrow, 13 December, Wednesday

    Time Temperature Precipitation Wind Pressure Humidity
    00:00 +17°C° 0 mm 2 mps 744 mmHg 42%
    01:00 +17°C° 0 mm 2 mps 743 mmHg 43%
    02:00 +16°C° 0 mm 2 mps 743 mmHg 44%
    03:00 +16°C° 0 mm 2 mps 743 mmHg 47%
    04:00 +15°C° 0 mm 1 mps 743 mmHg 50%
    05:00 +15°C° 0 mm 1 mps 743 mmHg 53%
    06:00 +16°C° 0 mm 1 mps 744 mmHg 52%
    07:00 +16°C° 0 mm 1 mps 744 mmHg 52%
    08:00 +18°C° 0 mm 1 mps 745 mmHg 51%
    09:00 +20°C° 0 mm 1 mps 745 mmHg 45%
    10:00 +22°C° 0 mm 1 mps 745 mmHg 38%
    11:00 +25°C° 0 mm 1 mps 745 mmHg 32%
    12:00 +25°C° 0 mm 1 mps 744 mmHg 30%
    13:00 +26°C° 0 mm 1 mps 744 mmHg 27%
    14:00 +27°C° 0 mm 1 mps 743 mmHg 25%
    15:00 +25°C° 0 mm 1 mps 743 mmHg 28%
    16:00 +24°C° 0 mm 1 mps 743 mmHg 31%
    17:00 +21°C° 0 mm 2 mps 742 mmHg 34%
    18:00 +21°C° 0 mm 2 mps 743 mmHg 35%
    19:00 +20°C° 0 mm 2 mps 743 mmHg 35%
    20:00 +19°C° 0 mm 2 mps 744 mmHg 36%
    21:00 +19°C° 0 mm 2 mps 744 mmHg 37%
    22:00 +18°C° 0 mm 2 mps 744 mmHg 38%
    23:00 +19°C° 0 mm 1 mps 744 mmHg 39%

    Day after tomorrow, 14 December, Thursday

    Time Temperature Precipitation Wind Pressure Humidity
    00:00 +18°C° 0 mm 2 mps 744 mmHg 40%
    01:00 +17°C° 0 mm 2 mps 744 mmHg 40%
    02:00 +17°C° 0 mm 2 mps 744 mmHg 41%
    03:00 +17°C° 0 mm 2 mps 744 mmHg 42%
    04:00 +17°C° 0 mm 2 mps 744 mmHg 42%
    05:00 +17°C° 0 mm 3 mps 744 mmHg 43%
    06:00 +17°C° 0 mm 3 mps 745 mmHg 44%
    07:00 +17°C° 0 mm 3 mps 746 mmHg 45%
    08:00 +18°C° 0 mm 3 mps 746 mmHg 46%
    09:00 +20°C° 0 mm 3 mps 747 mmHg 42%
    10:00 +21°C° 0 mm 3 mps 747 mmHg 39%
    11:00 +24°C° 0 mm 3 mps 747 mmHg 35%
    12:00 +25°C° 0 mm 3 mps 746 mmHg 34%
    13:00 +26°C° 0 mm 3 mps 745 mmHg 33%
    14:00 +26°C° 0 mm 2 mps 745 mmHg 32%
    15:00 +25°C° 0 mm 2 mps 745 mmHg 35%
    16:00 +24°C° 0 mm 2 mps 745 mmHg 38%
    17:00 +21°C° 0 mm 2 mps 745 mmHg 42%
    18:00 +21°C° 0 mm 2 mps 745 mmHg 42%
    19:00 +20°C° 0 mm 2 mps 745 mmHg 43%
    20:00 +19°C° 0 mm 2 mps 746 mmHg 43%
    21:00 +19°C° 0 mm 2 mps 746 mmHg 43%
    22:00 +19°C° 0 mm 2 mps 746 mmHg 43%
    23:00 +18°C° 0 mm 3 mps 746 mmHg 43%

    15 December, Friday

    Time Temperature Precipitation Wind Pressure Humidity
    00:00 +18°C° 0 mm 3 mps 746 mmHg 42%
    01:00 +17°C° 0 mm 3 mps 746 mmHg 41%
    02:00 +17°C° 0 mm 3 mps 745 mmHg 40%
    03:00 +17°C° 0 mm 3 mps 745 mmHg 38%
    04:00 +16°C° 0 mm 3 mps 745 mmHg 37%
    05:00 +16°C° 0 mm 3 mps 745 mmHg 36%
    06:00 +16°C° 0 mm 3 mps 746 mmHg 37%
    07:00 +17°C° 0 mm 3 mps 746 mmHg 38%
    08:00 +17°C° 0 mm 3 mps 747 mmHg 39%
    09:00 +19°C° 0 mm 3 mps 747 mmHg 36%
    10:00 +21°C° 0 mm 3 mps 747 mmHg 33%
    11:00 +24°C° 0 mm 3 mps 747 mmHg 30%
    12:00 +25°C° 0 mm 3 mps 747 mmHg 30%
    13:00 +26°C° 0 mm 3 mps 746 mmHg 29%
    14:00 +26°C° 0 mm 3 mps 746 mmHg 29%
    15:00 +25°C° 0 mm 3 mps 746 mmHg 32%
    16:00 +24°C° 0 mm 3 mps 746 mmHg 35%
    17:00 +21°C° 0 mm 2 mps 746 mmHg 38%
    18:00 +21°C° 0 mm 2 mps 746 mmHg 37%
    19:00 +20°C° 0 mm 2 mps 747 mmHg 37%
    20:00 +19°C° 0 mm 2 mps 747 mmHg 37%
    21:00 +19°C° 0 mm 2 mps 747 mmHg 37%
    22:00 +18°C° 0 mm 3 mps 747 mmHg 36%
    23:00 +18°C° 0 mm 3 mps 747 mmHg 36%

    16 December, Saturday

    Time Temperature Precipitation Wind Pressure Humidity
    00:00 +17°C° 0 mm 3 mps 747 mmHg 36%
    01:00 +17°C° 0 mm 3 mps 747 mmHg 35%
    02:00 +16°C° 0 mm 3 mps 746 mmHg 35%
    03:00 +16°C° 0 mm 3 mps 746 mmHg 35%
    04:00 +14°C° 0 mm 3 mps 746 mmHg 35%
    05:00 +14°C° 0 mm 3 mps 746 mmHg 34%
    06:00 +14°C° 0 mm 3 mps 747 mmHg 35%
    07:00 +16°C° 0 mm 3 mps 748 mmHg 35%
    08:00 +16°C° 0 mm 3 mps 748 mmHg 36%
    09:00 +18°C° 0 mm 3 mps 748 mmHg 32%
    10:00 +20°C° 0 mm 3 mps 748 mmHg 28%
    11:00 +22°C° 0 mm 3 mps 748 mmHg 24%
    12:00 +24°C° 0 mm 3 mps 748 mmHg 24%
    13:00 +25°C° 0 mm 3 mps 747 mmHg 23%
    14:00 +26°C° 0 mm 3 mps 746 mmHg 23%
    15:00 +24°C° 0 mm 3 mps 746 mmHg 25%
    16:00 +23°C° 0 mm 2 mps 746 mmHg 28%
    17:00 +20°C° 0 mm 2 mps 746 mmHg 31%
    18:00 +20°C° 0 mm 2 mps 747 mmHg 31%
    19:00 +19°C° 0 mm 2 mps 747 mmHg 30%
    20:00 +18°C° 0 mm 2 mps 748 mmHg 30%
    21:00 +18°C° 0 mm 2 mps 748 mmHg 30%
    22:00 +17°C° 0 mm 2 mps 748 mmHg 29%
    23:00 +16°C° 0 mm 2 mps 748 mmHg 29%

    17 December, Sunday

    Time Temperature Precipitation Wind Pressure Humidity
    00:00 +16°C° 0 mm 2 mps 748 mmHg 28%
    01:00 +15°C° 0 mm 2 mps 747 mmHg 27%
    02:00 +15°C° 0 mm 2 mps 747 mmHg 26%
    03:00 +15°C° 0 mm 2 mps 747 mmHg 26%
    04:00 +14°C° 0 mm 2 mps 747 mmHg 25%
    05:00 +14°C° 0 mm 2 mps 747 mmHg 25%
    06:00 +14°C° 0 mm 2 mps 748 mmHg 26%
    07:00 +15°C° 0 mm 2 mps 748 mmHg 27%
    08:00 +15°C° 0 mm 2 mps 749 mmHg 28%
    09:00 +18°C° 0 mm 3 mps 749 mmHg 26%
    10:00 +20°C° 0 mm 3 mps 749 mmHg 23%
    11:00 +24°C° 0 mm 3 mps 749 mmHg 20%
    12:00 +25°C° 0 mm 3 mps 748 mmHg 19%
    13:00 +26°C° 0 mm 4 mps 747 mmHg 19%
    14:00 +27°C° 0 mm 4 mps 747 mmHg 18%
    15:00 +25°C° 0 mm 3 mps 746 mmHg 21%
    16:00 +23°C° 0 mm 2 mps 746 mmHg 24%
    17:00 +20°C° 0 mm 2 mps 746 mmHg 27%
    18:00 +19°C° 0 mm 2 mps 746 mmHg 27%
    19:00 +18°C° 0 mm 2 mps 747 mmHg 27%
    20:00 +18°C° 0 mm 2 mps 747 mmHg 27%
    21:00 +17°C° 0 mm 2 mps 747 mmHg 26%
    22:00 +16°C° 0 mm 2 mps 747 mmHg 26%
    23:00 +16°C° 0 mm 2 mps 747 mmHg 25%
    Show more